Location: Henau
(47.4548°N, 9.1164°E)
Time: 00:50:14
(UTC+00:00)

USA 307 - Pass Details

Date: 03 March 2021
Orbit: 567 x 577 km, 54.0° (Epoch: 10 April)

Event Time Altitude Azimuth Distance (km) Brightness Sun altitude
Rises 19:56:48 0° 296° (WNW) 2,787 7.7 -28.2°
Reaches altitude 10° 19:59:10 10° 303° (WNW) 1,886 6.5 -28.5°
Enters shadow 20:01:53 32° 331° (NNW) 1,006 4.5 -29.0°
